Tracking 27380 objects as of 6-Jun-2023
HD Live streaming from Space Station
objects crossing your sky now

SL-14 DEB

Track SL-14 DEB now!
10-day predictions


NORAD ID: 19295
Int'l Code: 1978-100AE
Perigee: 1,258.1 km
Apogee: 2,062.9 km
Inclination: 82.0 °
Period: 119.4 minutes
Semi major axis: 8031 km
RCS: 0.0582 m2 (small)
Launch date: October 26, 1978
Source: Commonwealth of Independent States (former USSR) (CIS)
Launch site: PLESETSK MISSILE AND SPACE COMPLEX (PKMTR)

Note: This is SATELLITE DEBRIS
Your satellite tracking list
Your tracking list is empty




NASA's NSSDC Master Catalog

Two Line Element Set (TLE):
1 19295U 78100AE  23156.46503278  .00000404  00000-0  31450-2 0  9997
2 19295  81.9765 335.1759 0501054 327.6852  55.2509 12.06162644539550
Source of the keplerian elements: AFSPC